Regional Weather Roundup
Issued by NWS

Home | Current Version | Previous Version | Graphics & Text | Print | Product List | Glossary On
Versions: 1 2 3 4 5 6 7 8 9 10 11 12 13 14 15 16 17 18 19 20 21 22 23 24 25 26 27 28 29 30 31 32 33 34 35 36 37 38 39 40 41 42 43 44 45 46 47 48 49 50
700
ASUS43 KOAX 141802
RWRNE

WEATHER ROUNDUP FOR NEBRASKA
NATIONAL WEATHER SERVICE OMAHA NE
1200 PM CST THU DEC 14 2017

NOTES: SATELLITE DATA IS BEING USED TO AUGMENT CLOUD COVER ABOVE
       12000 FEET.
       "FAIR" INDICATES FEW OR NO CLOUDS BELOW 12,000 FEET WITH NO
       SIGNIFICANT WEATHER AND/OR OBSTRUCTIONS TO VISIBILITY.


NEZ001>004-019>022-054>056-141900-
NEBRASKA PANHANDLE

CITY           SKY/WX    TMP DP  RH WIND       PRES   REMARKS
SCOTTSBLUFF    FLURRIES  33  23  66 N26G41    30.22R WCI  20
6HR MIN TEMP:  33; 6HR MAX TEMP:  40; 6HR PCP: TRACE;

ALLIANCE       CLOUDY    35  19  52 NW29G37   30.15F WCI  22
6HR MIN TEMP:  32; 6HR MAX TEMP:  37;

CHADRON        CLOUDY    35  26  69 N3        30.20R
6HR MIN TEMP:  34; 6HR MAX TEMP:  38; 6HR PCP: TRACE;

GORDON         FLURRIES  32  27  79 NW21G28   30.15S WCI  20
6HR MIN TEMP:  32; 6HR MAX TEMP:  34;

KIMBALL        CLOUDY    35  18  49 N26G38    30.19S WCI  22
SIDNEY         CLOUDY    36  19  50 N28G39    30.18S WCI  23
6HR MIN TEMP:  19; 6HR MAX TEMP:  40;

$$

NEZ057>060-069>072-079>082-141900-
SOUTHWEST NEBRASKA

CITY           SKY/WX    TMP DP  RH WIND       PRES   REMARKS
NORTH PLATTE   CLOUDY    40  26  57 NW25G40   30.13S WCI  29
6HR MIN TEMP:  36; 6HR MAX TEMP:  40;

IMPERIAL       CLOUDY    45  25  45 N21G28    30.14S
6HR MIN TEMP:  35; 6HR MAX TEMP:  45;

LEXINGTON      DRIZZLE   39  33  81 NW16      30.11F WCI  30
MCCOOK         CLOUDY    42  28  57 N30G39    30.13S
6HR MIN TEMP:  37; 6HR MAX TEMP:  42;

OGALLALA       LGT SNOW  36  30  80 N22       30.17R WCI  24
$$

NEZ005>010-023>029-035>040-094-141900-
NORTH CENTRAL NEBRASKA

CITY           SKY/WX    TMP DP  RH WIND       PRES   REMARKS
VALENTINE      CLOUDY    35  30  82 NW20      30.13R WCI  24
6HR MIN TEMP:  34; 6HR MAX TEMP:  36; 6HR PCP:  0.04;

AINSWORTH      LGT SNOW  33  32  97 NW20G25   30.10S WCI  21
BROKEN BOW     FLURRIES  36  34  92 NW16G26   30.08F WCI  26
6HR MIN TEMP:  35; 6HR MAX TEMP:  38; 6HR PCP:  0.04;

O`NEILL        LGT RAIN  33  33 100 NW8       30.07S WCI  26
ORD            LGT RAIN  37  35  92 NW20G28   30.06F WCI  27
6HR MIN TEMP:  29; 6HR MAX TEMP:  37; 6HR PCP:  0.04;

THEDFORD       LGT SNOW  34  31  90 NW22G30   30.13S WCI  22
$$

NEZ041-046>049-061>064-073>077-083>087-141900-
SOUTH CENTRAL NEBRASKA

CITY           SKY/WX    TMP DP  RH WIND       PRES   REMARKS
GRAND ISLAND   LGT RAIN  37  36  96 NW13      30.08F WCI  29
6HR MIN TEMP:  28; 6HR MAX TEMP:  37; 6HR PCP:  0.02;

AURORA         LGT RAIN  37  35  92 NW10      30.08F WCI  29
HASTINGS       LGT RAIN  38  34  85 NW14      30.08F WCI  30
6HR MIN TEMP:  29; 6HR MAX TEMP:  38; 6HR PCP:  0.01;

HEBRON         CLOUDY    44  28  54 NW7       30.09F
HOLDREGE       CLOUDY    40  33  76 NW16      30.09F WCI  32
KEARNEY        LGT RAIN  39  35  86 NW16      30.09F WCI  30
$$

NEZ011>018-030>034-042>045-141900-
NORTHEAST NEBRASKA

CITY           SKY/WX    TMP DP  RH WIND       PRES   REMARKS
NORFOLK        CLOUDY    37  26  64 NW10      30.04F WCI  30
6HR MIN TEMP:  31; 6HR MAX TEMP:  37;

ALBION           N/A    N/A N/A N/A MISG        N/A
BLAIR          CLOUDY    39  27  61 NW9       30.05F WCI  33
COLUMBUS       CLOUDY    39  26  59 W10       30.08F WCI  32
FREMONT        CLOUDY    39  27  60 NW9       30.07S WCI  33
TEKAMAH        CLOUDY    40  25  55 N10       30.06F WCI  33
6HR MIN TEMP:  31; 6HR MAX TEMP:  40;

WAYNE          PTSUNNY   38  25  59 N8        30.05F WCI  32
$$

NEZ050>053-065>068-078-088>093-141900-
SOUTHEAST NEBRASKA

CITY           SKY/WX    TMP DP  RH WIND       PRES   REMARKS
LINCOLN        CLOUDY    41  25  53 NW9       30.09F
6HR MIN TEMP:  36; 6HR MAX TEMP:  42;

OMAHA EPPLEY   CLOUDY    40  25  55 NW10      30.06F WCI  33
6HR MIN TEMP:  33; 6HR MAX TEMP:  41;

BEATRICE       PTSUNNY   42  27  55 NW9       30.08F
FALLS CITY     CLOUDY    41  24  51 NW8       30.08F
6HR MIN TEMP:  34; 6HR MAX TEMP:  41;

NEBRASKA CITY  CLOUDY    41  27  57 W7        30.07F
PLATTSMOUTH    CLOUDY    39  26  59 NW5       30.06F
$$

NEZ044-045-051>053-067-141900-
OMAHA AREA

CITY           SKY/WX    TMP DP  RH WIND       PRES   REMARKS
OMAHA EPPLEY   CLOUDY    40  25  55 NW10      30.06F WCI  33
6HR MIN TEMP:  33; 6HR MAX TEMP:  41;

BLAIR          CLOUDY    39  27  61 NW9       30.05F WCI  33
FREMONT        CLOUDY    39  27  60 NW9       30.07S WCI  33
MILLARD        CLOUDY    42  27  55 N5        30.06F
OFFUTT AFB     CLOUDY    40  24  52 NW10      30.06F WCI  34
PLATTSMOUTH    CLOUDY    39  26  59 NW5       30.06F
WAHOO          CLOUDY    40  26  56 NW9       30.07S WCI  34
$$




USA.gov is the U.S. government's official web portal to all federal, state and local government web resources and services.